sat.trackr.live / text

‹ back to catalog

STARLINK-3265

NORAD 50180 · 2021-125AA

PAYLOAD ACTIVE UNKNOWN

§ Identity

Operator
Country
US
Launch date
2021-12-18
Launch site
AFWTR
Launch vehicle
Mass (kg)
RCS (m²)

Purposes: comms

External: N2YO · Heavens-Above · Gunter

§ Orbital elements

Epoch: 2026-09-20T00:14:52.341792Z

Period
94.01 min
Inclination
53.1592°
Eccentricity
0.0001158
Mean motion
15.31701446 rev/d
Perigee alt
469.9 km
Apogee alt
471.5 km
Semi-major
6,848.9 km
B*
4.7231e-5
RAAN
84.0493°
Arg perigee
93.4131°
Mean anomaly
266.7003°
Rev number
26,615

§ Raw data

STARLINK-32651 50180U 21125AA  26263.01032803  .00001101  00000+0  47231-4 0  99942 50180  53.1592  84.0493 0001158  93.4131 266.7003 15.31701446266151

JSON: /api/v1/satellites/50180 · /tle

For live sub-satellite position, see the globe view (requires WebGL).

§ Visibility from observer

Set your observer location to see the next 7 days of passes ≥ 10°. The values pass through the URL so the page stays shareable.

No JS? Fill the form by hand. The geolocation button needs JavaScript.